,,,PA_Meas_PMT16A,,PR_Meas_QMR101_102,,RH_Meas_QMH101,,SR_Meas_QMS101,,TA_Meas_QMH101,,GenWind,,GenWind,
date,time,status,PA,status,PR,status,RH,status,SR,status,TA,status,DirAvg,status,SpdAvg,
2009-04-03, 00:00:04,VALID,1008.73,VALID,0,VALID,84.3485,VALID,0,VALID,24.6684,VALID,45,VALID,0,
2009-04-03, 00:01:04,VALID,1008.72,VALID,0,VALID,84.3561,VALID,0,VALID,24.6684,VALID,45,VALID,0,
2009-04-03, 00:02:04,VALID,1008.72,VALID,0,VALID,84.3866,VALID,0,VALID,24.6684,VALID,45,VALID,0,
2009-04-03, 00:03:04,VALID,1008.71,VALID,0,VALID,84.3942,VALID,0,VALID,24.6276,VALID,45,VALID,0,
2009-04-03, 00:04:04,VALID,1008.75,VALID,0,VALID,84.3942,VALID,0,VALID,24.6489,VALID,45,VALID,0,
2009-04-03, 00:05:04,VALID,1008.72,VALID,0,VALID,84.3942,VALID,0,VALID,24.5905,VALID,45,VALID,0,
2009-04-03, 00:06:04,VALID,1008.75,VALID,0,VALID,84.3942,VALID,0,VALID,24.571,VALID,45,VALID,0,
2009-04-03, 00:07:04,VALID,1008.75,VALID,0,VALID,84.4018,VALID,0,VALID,24.5301,VALID,45,VALID,0,
2009-04-03, 00:08:04,VALID,1008.76,VALID,0,VALID,84.3866,VALID,0,VALID,24.532,VALID,45,VALID,0,
2009-04-03, 00:09:04,VALID,1008.76,VALID,0,VALID,84.4018,VALID,0,VALID,24.4717,VALID,45,VALID,0,
2009-04-03, 00:10:04,VALID,1008.71,VALID,0,VALID,84.4018,VALID,0,VALID,24.4717,VALID,45,VALID,0,
2009-04-03, 00:11:04,VALID,1008.71,VALID,0,VALID,84.3942,VALID,0,VALID,24.4735,VALID,45,VALID,0,
2009-04-03, 00:12:04,VALID,1008.71,VALID,0,VALID,84.4171,VALID,0,VALID,24.454,VALID,45,VALID,0,
2009-04-03, 00:13:04,VALID,1008.7,VALID,0,VALID,84.4323,VALID,0,VALID,24.454,VALID,45,VALID,0,
2009-04-03, 00:14:04,VALID,1008.7,VALID,0,VALID,84.44,VALID,0,VALID,24.454,VALID,45,VALID,0,
2009-04-03, 00:15:04,VALID,1008.71,VALID,0,VALID,84.4628,VALID,0,VALID,24.4735,VALID,45,VALID,0,
2009-04-03, 00:16:04,VALID,1008.68,VALID,0,VALID,84.4705,VALID,0,VALID,24.4735,VALID,97,VALID,0,
2009-04-03, 00:17:04,VALID,1008.67,VALID,0,VALID,84.4781,VALID,0.105969,VALID,24.4717,VALID,109,VALID,0,
2009-04-03, 00:18:04,VALID,1008.63,VALID,0,VALID,84.4933,VALID,0.105969,VALID,24.4717,VALID,109,VALID,0,
2009-04-03, 00:19:04,VALID,1008.6,VALID,0,VALID,84.501,VALID,0.105969,VALID,24.4308,VALID,109,VALID,0,
2009-04-03, 00:20:04,VALID,1008.63,VALID,0,VALID,84.5162,VALID,0.105969,VALID,24.4522,VALID,109,VALID,0,
2009-04-03, 00:21:04,VALID,1008.58,VALID,0,VALID,84.5391,VALID,0.105969,VALID,24.4717,VALID,109,VALID,0,
2009-04-03, 00:22:04,VALID,1008.58,VALID,0,VALID,84.5315,VALID,0.105969,VALID,24.4717,VALID,109,VALID,0,
2009-04-03, 00:23:04,VALID,1008.6,VALID,0,VALID,84.562,VALID,0,VALID,24.4911,VALID,109,VALID,0,
2009-04-03, 00:24:04,VALID,1008.56,VALID,0,VALID,84.5772,VALID,0.105969,VALID,24.4911,VALID,109,VALID,0,
2009-04-03, 00:25:04,VALID,1008.57,VALID,0,VALID,84.5849,VALID,0,VALID,24.4911,VALID,109,VALID,0,
2009-04-03, 00:26:04,VALID,1008.55,VALID,0,VALID,84.6077,VALID,0,VALID,24.4911,VALID,109,VALID,0,
2009-04-03, 00:27:04,VALID,1008.5,VALID,0,VALID,84.6001,VALID,0,VALID,24.4911,VALID,109,VALID,0,
2009-04-03, 00:28:04,VALID,1008.5,VALID,0,VALID,84.6077,VALID,0.105969,VALID,24.4503,VALID,109,VALID,0,
2009-04-03, 00:29:04,VALID,1008.47,VALID,0,VALID,84.6306,VALID,0,VALID,24.4735,VALID,109,VALID,0,
2009-04-03, 00:30:04,VALID,1008.46,VALID,0,VALID,84.623,VALID,0,VALID,24.454,VALID,109,VALID,0,
2009-04-03, 00:31:04,VALID,1008.43,VALID,0,VALID,84.6306,VALID,0,VALID,24.4345,VALID,109,VALID,0,
2009-04-03, 00:32:04,VALID,1008.43,VALID,0,VALID,84.6382,VALID,0,VALID,24.454,VALID,109,VALID,0,
2009-04-03, 00:33:04,VALID,1008.46,VALID,0,VALID,84.6459,VALID,0,VALID,24.415,VALID,99,VALID,0,
2009-04-03, 00:34:04,VALID,1008.38,VALID,0,VALID,84.623,VALID,0,VALID,24.4345,VALID,66,VALID,0,
2009-04-03, 00:35:04,VALID,1008.41,VALID,0,VALID,84.6459,VALID,0,VALID,24.415,VALID,66,VALID,0,
2009-04-03, 00:36:04,VALID,1008.37,VALID,0,VALID,84.6459,VALID,0,VALID,24.3956,VALID,66,VALID,0,
2009-04-03, 00:37:04,VALID,1008.35,VALID,0,VALID,84.6687,VALID,0,VALID,24.3761,VALID,66,VALID,0,
2009-04-03, 00:38:04,VALID,1008.34,VALID,0,VALID,84.6535,VALID,0,VALID,24.3761,VALID,66,VALID,0,
2009-04-03, 00:39:04,VALID,1008.32,VALID,0,VALID,84.6916,VALID,0,VALID,24.3761,VALID,66,VALID,0,
2009-04-03, 00:40:04,VALID,1008.31,VALID,0,VALID,84.6687,VALID,0,VALID,24.3761,VALID,66,VALID,0,
2009-04-03, 00:41:04,VALID,1008.3,VALID,0,VALID,84.6992,VALID,0,VALID,24.3547,VALID,66,VALID,0,
2009-04-03, 00:42:04,VALID,1008.3,VALID,0,VALID,84.6916,VALID,0,VALID,24.3761,VALID,66,VALID,0,
2009-04-03, 00:43:04,VALID,1008.31,VALID,0,VALID,84.6916,VALID,0,VALID,24.3761,VALID,66,VALID,0,
2009-04-03, 00:44:04,VALID,1008.32,VALID,0,VALID,84.6992,VALID,0,VALID,24.3352,VALID,66,VALID,0,
2009-04-03, 00:45:04,VALID,1008.34,VALID,0,VALID,84.7145,VALID,0.105969,VALID,24.3352,VALID,66,VALID,0,
2009-04-03, 00:46:04,VALID,1008.3,VALID,0,VALID,84.7145,VALID,0.105969,VALID,24.3139,VALID,66,VALID,0,
2009-04-03, 00:47:04,VALID,1008.32,VALID,0,VALID,84.7145,VALID,0.105969,VALID,24.3352,VALID,66,VALID,0,
2009-04-03, 00:48:04,VALID,1008.32,VALID,0,VALID,84.745,VALID,0,VALID,24.2963,VALID,66,VALID,0,
2009-04-03, 00:49:04,VALID,1008.24,VALID,0,VALID,84.7297,VALID,0.105969,VALID,24.3158,VALID,66,VALID,0,
2009-04-03, 00:50:04,VALID,1008.22,VALID,0,VALID,84.7145,VALID,0,VALID,24.2963,VALID,66,VALID,0,
2009-04-03, 00:51:04,VALID,1008.19,VALID,0,VALID,84.7297,VALID,0.105969,VALID,24.2963,VALID,66,VALID,0,
2009-04-03, 00:52:04,VALID,1008.18,VALID,0,VALID,84.745,VALID,0.105969,VALID,24.2963,VALID,66,VALID,0,
2009-04-03, 00:53:04,VALID,1008.17,VALID,0,VALID,84.7297,VALID,0.105969,VALID,24.2768,VALID,66,VALID,0,
2009-04-03, 00:54:04,VALID,1008.15,VALID,0,VALID,84.7526,VALID,0.105969,VALID,24.2573,VALID,66,VALID,0,
2009-04-03, 00:55:04,VALID,1008.15,VALID,0,VALID,84.7526,VALID,0.105969,VALID,24.2573,VALID,66,VALID,0,
2009-04-03, 00:56:04,VALID,1008.15,VALID,0,VALID,84.7679,VALID,0,VALID,24.2768,VALID,66,VALID,0,
2009-04-03, 00:57:04,VALID,1008.13,VALID,0,VALID,84.7602,VALID,0.105969,VALID,24.2963,VALID,66,VALID,0,
2009-04-03, 00:58:04,VALID,1008.12,VALID,0,VALID,84.7831,VALID,0,VALID,24.3352,VALID,66,VALID,0,
2009-04-03, 00:59:04,VALID,1008.09,VALID,0,VALID,84.7831,VALID,0.105969,VALID,24.3139,VALID,66,VALID,0,
2009-04-03, 01:00:04,VALID,1008.07,VALID,0,VALID,84.7831,VALID,0.105969,VALID,24.3352,VALID,66,VALID,0,
2009-04-03, 01:01:04,VALID,1008.06,VALID,0,VALID,84.806,VALID,0.105969,VALID,24.3352,VALID,66,VALID,0,
2009-04-03, 01:02:04,VALID,1008.06,VALID,0,VALID,84.806,VALID,0,VALID,24.3352,VALID,66,VALID,0,
2009-04-03, 01:03:04,VALID,1008.05,VALID,0,VALID,84.806,VALID,0.105969,VALID,24.3158,VALID,66,VALID,0,
2009-04-03, 01:04:04,VALID,1008.01,VALID,0,VALID,84.8136,VALID,0.105969,VALID,24.3158,VALID,66,VALID,0,
2009-04-03, 01:05:04,VALID,1008.01,VALID,0,VALID,84.8213,VALID,0,VALID,24.2963,VALID,66,VALID,0,
2009-04-03, 01:06:04,VALID,1007.99,VALID,0,VALID,84.7984,VALID,0,VALID,24.2963,VALID,66,VALID,0,
2009-04-03, 01:07:04,VALID,1008,VALID,0,VALID,84.806,VALID,0.105969,VALID,24.2749,VALID,66,VALID,0,
2009-04-03, 01:08:04,VALID,1008,VALID,0,VALID,84.8365,VALID,0,VALID,24.2768,VALID,66,VALID,0,
2009-04-03, 01:09:04,VALID,1007.99,VALID,0,VALID,84.8213,VALID,0.105969,VALID,24.3176,VALID,66,VALID,0,
2009-04-03, 01:10:04,VALID,1007.99,VALID,0,VALID,84.8213,VALID,0,VALID,24.2963,VALID,66,VALID,0,
2009-04-03, 01:11:04,VALID,1008,VALID,0,VALID,84.8136,VALID,0,VALID,24.2768,VALID,66,VALID,0,
2009-04-03, 01:12:04,VALID,1008.03,VALID,0,VALID,84.7984,VALID,0,VALID,24.2768,VALID,66,VALID,0,
2009-04-03, 01:13:04,VALID,1008.05,VALID,0,VALID,84.8213,VALID,0.105969,VALID,24.2573,VALID,66,VALID,0,
2009-04-03, 01:14:04,VALID,1008.09,VALID,0,VALID,84.8213,VALID,0,VALID,24.2591,VALID,66,VALID,0,
2009-04-03, 01:15:04,VALID,1008.1,VALID,0,VALID,84.8289,VALID,0,VALID,24.2396,VALID,66,VALID,0,
2009-04-03, 01:16:04,VALID,1008.11,VALID,0,VALID,84.8289,VALID,0,VALID,24.2202,VALID,66,VALID,0,
2009-04-03, 01:17:04,VALID,1008.11,VALID,0,VALID,84.8441,VALID,0,VALID,24.2202,VALID,66,VALID,0,
2009-04-03, 01:18:04,VALID,1008.1,VALID,0,VALID,84.8136,VALID,0.105969,VALID,24.2202,VALID,66,VALID,0,
2009-04-03, 01:19:04,VALID,1008.08,VALID,0,VALID,84.8213,VALID,0,VALID,24.2007,VALID,66,VALID,0,
2009-04-03, 01:20:04,VALID,1008.09,VALID,0,VALID,84.8441,VALID,0,VALID,24.1812,VALID,66,VALID,0,
2009-04-03, 01:21:04,VALID,1008.06,VALID,0,VALID,84.8518,VALID,0,VALID,24.1812,VALID,66,VALID,0,
2009-04-03, 01:22:04,VALID,1008.03,VALID,0,VALID,84.8518,VALID,0,VALID,24.1812,VALID,66,VALID,0,
2009-04-03, 01:23:04,VALID,1008.02,VALID,0,VALID,84.8365,VALID,0,VALID,24.1617,VALID,66,VALID,0,
2009-04-03, 01:24:04,VALID,1008.05,VALID,0,VALID,84.8518,VALID,0,VALID,24.2007,VALID,66,VALID,0,
2009-04-03, 01:25:04,VALID,1008.03,VALID,0,VALID,84.8594,VALID,0,VALID,24.2202,VALID,66,VALID,0,
2009-04-03, 01:26:04,VALID,1008.01,VALID,0,VALID,84.867,VALID,0,VALID,24.2202,VALID,66,VALID,0,
2009-04-03, 01:27:04,VALID,1007.98,VALID,0,VALID,84.867,VALID,0,VALID,24.2007,VALID,66,VALID,0,
2009-04-03, 01:28:04,VALID,1008,VALID,0,VALID,84.8518,VALID,0,VALID,24.2007,VALID,66,VALID,0,
2009-04-03, 01:29:04,VALID,1008.02,VALID,0,VALID,84.8746,VALID,0,VALID,24.2007,VALID,66,VALID,0,
2009-04-03, 01:30:04,VALID,1008.05,VALID,0,VALID,84.8823,VALID,0,VALID,24.2007,VALID,66,VALID,0,
2009-04-03, 01:31:05,VALID,1008.06,VALID,0,VALID,84.8823,VALID,0,VALID,24.1599,VALID,66,VALID,0,
2009-04-03, 01:32:05,VALID,1008.05,VALID,0,VALID,84.8823,VALID,0,VALID,24.1227,VALID,66,VALID,0,
2009-04-03, 01:33:05,VALID,1008.06,VALID,0,VALID,84.8823,VALID,0,VALID,24.1032,VALID,66,VALID,0,
2009-04-03, 01:34:05,VALID,1008.09,VALID,0,VALID,84.8823,VALID,0,VALID,24.0837,VALID,66,VALID,0,
2009-04-03, 01:35:05,VALID,1008.06,VALID,0,VALID,84.8746,VALID,0,VALID,24.0624,VALID,66,VALID,0,
2009-04-03, 01:36:05,VALID,1008.08,VALID,0,VALID,84.8823,VALID,0,VALID,24.0429,VALID,66,VALID,0,
2009-04-03, 01:37:05,VALID,1008.06,VALID,0,VALID,84.8746,VALID,0,VALID,24.0235,VALID,66,VALID,0,
2009-04-03, 01:38:05,VALID,1008.06,VALID,0,VALID,84.8975,VALID,0,VALID,24.0235,VALID,66,VALID,0,
2009-04-03, 01:39:05,VALID,1008.05,VALID,0,VALID,84.8823,VALID,0,VALID,24.0448,VALID,66,VALID,0,
2009-04-03, 01:40:05,VALID,1008.02,VALID,0,VALID,84.8975,VALID,0,VALID,24.0448,VALID,66,VALID,0,
2009-04-03, 01:41:05,VALID,1007.97,VALID,0,VALID,84.8975,VALID,0,VALID,24.0643,VALID,66,VALID,0,
2009-04-03, 01:42:05,VALID,1007.98,VALID,0,VALID,84.9051,VALID,0,VALID,24.0643,VALID,66,VALID,0,
2009-04-03, 01:43:05,VALID,1007.96,VALID,0,VALID,84.9051,VALID,0,VALID,24.0643,VALID,66,VALID,0,
2009-04-03, 01:44:05,VALID,1007.92,VALID,0,VALID,84.9128,VALID,0,VALID,24.0643,VALID,66,VALID,0,
2009-04-03, 01:45:05,VALID,1007.89,VALID,0,VALID,84.9128,VALID,0,VALID,24.0643,VALID,66,VALID,0,
2009-04-03, 01:46:05,VALID,1007.89,VALID,0,VALID,84.9128,VALID,0,VALID,24.0235,VALID,66,VALID,0,
2009-04-03, 01:47:05,VALID,1007.86,VALID,0,VALID,84.9204,VALID,0,VALID,24.0058,VALID,66,VALID,0,
2009-04-03, 01:48:05,VALID,1007.84,VALID,0,VALID,84.9433,VALID,0,VALID,24.0058,VALID,66,VALID,0,
2009-04-03, 01:49:05,VALID,1007.83,VALID,0,VALID,84.928,VALID,0,VALID,23.9863,VALID,66,VALID,0,
2009-04-03, 01:50:05,VALID,1007.78,VALID,0,VALID,84.928,VALID,0,VALID,23.9668,VALID,66,VALID,0,
2009-04-03, 01:51:05,VALID,1007.78,VALID,0,VALID,84.9509,VALID,0,VALID,23.9668,VALID,66,VALID,0,
2009-04-03, 01:52:05,VALID,1007.76,VALID,0,VALID,84.9585,VALID,0,VALID,23.9455,VALID,66,VALID,0,
2009-04-03, 01:53:05,VALID,1007.75,VALID,0,VALID,84.9509,VALID,0,VALID,23.9863,VALID,61,VALID,0,
2009-04-03, 01:54:05,VALID,1007.73,VALID,0,VALID,84.9738,VALID,0,VALID,23.9668,VALID,46,VALID,0,
2009-04-03, 01:55:05,VALID,1007.74,VALID,0,VALID,84.9814,VALID,0,VALID,23.9668,VALID,46,VALID,0,
2009-04-03, 01:56:05,VALID,1007.77,VALID,0,VALID,84.9661,VALID,0,VALID,23.9473,VALID,46,VALID,0,
2009-04-03, 01:57:05,VALID,1007.75,VALID,0,VALID,84.9814,VALID,0,VALID,23.9473,VALID,46,VALID,0,
2009-04-03, 01:58:05,VALID,1007.74,VALID,0,VALID,84.9814,VALID,0,VALID,23.9473,VALID,46,VALID,0,
2009-04-03, 01:59:05,VALID,1007.76,VALID,0,VALID,84.989,VALID,0,VALID,23.9473,VALID,46,VALID,0,
2009-04-03, 02:00:05,VALID,1007.73,VALID,0,VALID,84.989,VALID,0,VALID,23.9473,VALID,43,VALID,0.132031,
2009-04-03, 02:01:05,VALID,1007.73,VALID,0,VALID,84.989,VALID,0,VALID,23.9668,VALID,43,VALID,0.264844,
2009-04-03, 02:02:05,VALID,1007.7,VALID,0,VALID,85.0043,VALID,0,VALID,23.9668,VALID,43,VALID,0.226563,
2009-04-03, 02:03:05,VALID,1007.7,VALID,0,VALID,84.9814,VALID,0,VALID,23.9668,VALID,43,VALID,0.260938,
2009-04-03, 02:04:05,VALID,1007.69,VALID,0,VALID,85.0043,VALID,0,VALID,23.9084,VALID,43,VALID,0.207422,
2009-04-03, 02:05:05,VALID,1007.69,VALID,0,VALID,85.0043,VALID,0,VALID,23.8871,VALID,43,VALID,0.168359,
2009-04-03, 02:06:05,VALID,1007.69,VALID,0,VALID,85.0195,VALID,0,VALID,23.8871,VALID,43,VALID,0,
2009-04-03, 02:07:05,VALID,1007.66,VALID,0,VALID,84.9967,VALID,0,VALID,23.8889,VALID,43,VALID,0,
2009-04-03, 02:08:05,VALID,1007.67,VALID,0,VALID,85.0272,VALID,0.105969,VALID,23.8481,VALID,43,VALID,0.0398437,
2009-04-03, 02:09:05,VALID,1007.67,VALID,0,VALID,85.0195,VALID,0,VALID,23.8499,VALID,43,VALID,0,
2009-04-03, 02:10:05,VALID,1007.66,VALID,0,VALID,85.0195,VALID,0,VALID,23.8304,VALID,43,VALID,0,
2009-04-03, 02:11:05,VALID,1007.66,VALID,0,VALID,85.0272,VALID,0,VALID,23.8109,VALID,43,VALID,0,
2009-04-03, 02:12:05,VALID,1007.65,VALID,0,VALID,85.0348,VALID,0,VALID,23.7914,VALID,43,VALID,0,
2009-04-03, 02:13:05,VALID,1007.62,VALID,0,VALID,85.0424,VALID,0,VALID,23.7914,VALID,43,VALID,0,
2009-04-03, 02:14:05,VALID,1007.63,VALID,0,VALID,85.0272,VALID,0,VALID,23.7701,VALID,43,VALID,0,
2009-04-03, 02:15:05,VALID,1007.63,VALID,0,VALID,85.0272,VALID,0,VALID,23.7312,VALID,43,VALID,0,
2009-04-03, 02:16:05,VALID,1007.63,VALID,0,VALID,85.0577,VALID,0.105969,VALID,23.7099,VALID,43,VALID,0,
2009-04-03, 02:17:05,VALID,1007.61,VALID,0,VALID,85.0272,VALID,0.105969,VALID,23.7312,VALID,43,VALID,0,
2009-04-03, 02:18:05,VALID,1007.65,VALID,0,VALID,85.0424,VALID,0.105969,VALID,23.7117,VALID,43,VALID,0,
2009-04-03, 02:19:05,VALID,1007.62,VALID,0,VALID,85.0424,VALID,0.105969,VALID,23.6922,VALID,43,VALID,0,
2009-04-03, 02:20:05,VALID,1007.65,VALID,0,VALID,85.05,VALID,0.105969,VALID,23.6922,VALID,43,VALID,0,
2009-04-03, 02:21:05,VALID,1007.67,VALID,0,VALID,85.05,VALID,0.105969,VALID,23.6709,VALID,43,VALID,0,
2009-04-03, 02:22:05,VALID,1007.71,VALID,0,VALID,85.05,VALID,0.105969,VALID,23.6922,VALID,43,VALID,0,
2009-04-03, 02:23:05,VALID,1007.71,VALID,0,VALID,85.0577,VALID,0.105969,VALID,23.6922,VALID,43,VALID,0,
2009-04-03, 02:24:05,VALID,1007.71,VALID,0,VALID,85.05,VALID,0.105969,VALID,23.6922,VALID,43,VALID,0,
2009-04-03, 02:25:05,VALID,1007.68,VALID,0,VALID,85.0653,VALID,0.105969,VALID,23.7117,VALID,43,VALID,0,
2009-04-03, 02:26:05,VALID,1007.69,VALID,0,VALID,85.0805,VALID,0.105969,VALID,23.7312,VALID,43,VALID,0,
2009-04-03, 02:27:05,VALID,1007.69,VALID,0,VALID,85.0729,VALID,0.105969,VALID,23.7312,VALID,43,VALID,0,
2009-04-03, 02:28:05,VALID,1007.67,VALID,0,VALID,85.0729,VALID,0.105969,VALID,23.7507,VALID,43,VALID,0,
2009-04-03, 02:29:05,VALID,1007.69,VALID,0,VALID,85.0729,VALID,0,VALID,23.7312,VALID,43,VALID,0.170703,
2009-04-03, 02:30:05,VALID,1007.7,VALID,0,VALID,85.0882,VALID,0,VALID,23.7914,VALID,43,VALID,0.205469,
2009-04-03, 02:31:05,VALID,1007.73,VALID,0,VALID,85.0882,VALID,0,VALID,23.772,VALID,43,VALID,0.273828,
2009-04-03, 02:32:05,VALID,1007.72,VALID,0,VALID,85.0958,VALID,0,VALID,23.7914,VALID,43,VALID,0.315625,
2009-04-03, 02:33:05,VALID,1007.71,VALID,0,VALID,85.1034,VALID,0,VALID,23.7525,VALID,43,VALID,0,
2009-04-03, 02:34:05,VALID,1007.72,VALID,0,VALID,85.1034,VALID,0,VALID,23.7135,VALID,43,VALID,0,
2009-04-03, 02:35:05,VALID,1007.71,VALID,0,VALID,85.1263,VALID,0,VALID,23.7135,VALID,43,VALID,0,
2009-04-03, 02:36:05,VALID,1007.7,VALID,0,VALID,85.1187,VALID,0,VALID,23.7135,VALID,43,VALID,0,
2009-04-03, 02:37:05,VALID,1007.68,VALID,0,VALID,85.1187,VALID,0,VALID,23.6922,VALID,43,VALID,0,
2009-04-03, 02:38:05,VALID,1007.66,VALID,0,VALID,85.1187,VALID,0,VALID,23.694,VALID,43,VALID,0,
2009-04-03, 02:39:05,VALID,1007.65,VALID,0,VALID,85.1263,VALID,0,VALID,23.6727,VALID,43,VALID,0,
2009-04-03, 02:40:05,VALID,1007.67,VALID,0,VALID,85.1339,VALID,0,VALID,23.6745,VALID,43,VALID,0,
2009-04-03, 02:41:05,VALID,1007.66,VALID,0,VALID,85.1415,VALID,0,VALID,23.6745,VALID,43,VALID,0,
2009-04-03, 02:42:05,VALID,1007.67,VALID,0,VALID,85.1263,VALID,0,VALID,23.655,VALID,43,VALID,0,
2009-04-03, 02:43:05,VALID,1007.69,VALID,0,VALID,85.1263,VALID,0,VALID,23.6356,VALID,43,VALID,0,
2009-04-03, 02:44:05,VALID,1007.65,VALID,0,VALID,85.1492,VALID,0,VALID,23.6338,VALID,43,VALID,0,
2009-04-03, 02:45:05,VALID,1007.62,VALID,0,VALID,85.1492,VALID,0,VALID,23.6532,VALID,43,VALID,0,
2009-04-03, 02:46:05,VALID,1007.64,VALID,0,VALID,85.1568,VALID,0.105969,VALID,23.6338,VALID,43,VALID,0,
2009-04-03, 02:47:05,VALID,1007.61,VALID,0,VALID,85.1415,VALID,0,VALID,23.5948,VALID,43,VALID,0,
2009-04-03, 02:48:05,VALID,1007.61,VALID,0,VALID,85.1568,VALID,0,VALID,23.6143,VALID,43,VALID,0,
2009-04-03, 02:49:05,VALID,1007.6,VALID,0,VALID,85.1644,VALID,0.105969,VALID,23.6143,VALID,43,VALID,0,
2009-04-03, 02:50:05,VALID,1007.59,VALID,0,VALID,85.1492,VALID,0.105969,VALID,23.593,VALID,43,VALID,0,
2009-04-03, 02:51:05,VALID,1007.59,VALID,0,VALID,85.1644,VALID,0.105969,VALID,23.6143,VALID,43,VALID,0,
2009-04-03, 02:52:05,VALID,1007.59,VALID,0,VALID,85.1644,VALID,0.105969,VALID,23.6143,VALID,44,VALID,0,
2009-04-03, 02:53:05,VALID,1007.59,VALID,0,VALID,85.1644,VALID,0.105969,VALID,23.6125,VALID,61,VALID,0.634375,
2009-04-03, 02:54:05,VALID,1007.58,VALID,0,VALID,85.1797,VALID,0.105969,VALID,23.6338,VALID,61,VALID,0.629297,
2009-04-03, 02:55:05,VALID,1007.61,VALID,0,VALID,85.1873,VALID,0.105969,VALID,23.6125,VALID,69,VALID,0.433203,
2009-04-03, 02:56:05,VALID,1007.58,VALID,0,VALID,85.1797,VALID,0.105969,VALID,23.6338,VALID,69,VALID,0.225,
2009-04-03, 02:57:05,VALID,1007.59,VALID,0,VALID,85.2025,VALID,0.105969,VALID,23.6143,VALID,48,VALID,0.0582031,
2009-04-03, 02:58:05,VALID,1007.57,VALID,0,VALID,85.1949,VALID,0.105969,VALID,23.5948,VALID,48,VALID,0.00195313,
2009-04-03, 02:59:05,VALID,1007.56,VALID,0,VALID,85.2025,VALID,0,VALID,23.5966,VALID,48,VALID,0,
2009-04-03, 03:00:05,VALID,1007.57,VALID,0,VALID,85.1873,VALID,0,VALID,23.5771,VALID,48,VALID,0,
2009-04-03, 03:01:05,VALID,1007.57,VALID,0,VALID,85.2025,VALID,0,VALID,23.5771,VALID,48,VALID,0,
2009-04-03, 03:02:05,VALID,1007.57,VALID,0,VALID,85.2025,VALID,0,VALID,23.5966,VALID,48,VALID,0,
2009-04-03, 03:03:05,VALID,1007.58,VALID,0,VALID,85.2025,VALID,0,VALID,23.5966,VALID,52,VALID,0,
2009-04-03, 03:04:05,VALID,1007.58,VALID,0,VALID,85.2178,VALID,0,VALID,23.5558,VALID,52,VALID,0,
2009-04-03, 03:05:05,VALID,1007.58,VALID,0,VALID,85.233,VALID,0,VALID,23.5558,VALID,52,VALID,0,
2009-04-03, 03:06:05,VALID,1007.58,VALID,0,VALID,85.2102,VALID,0,VALID,23.5363,VALID,52,VALID,0,
2009-04-03, 03:07:05,VALID,1007.58,VALID,0,VALID,85.2254,VALID,0,VALID,23.5381,VALID,52,VALID,0,
2009-04-03, 03:08:05,VALID,1007.62,VALID,0,VALID,85.2025,VALID,0,VALID,23.5381,VALID,52,VALID,0,
2009-04-03, 03:09:05,VALID,1007.63,VALID,0,VALID,85.1949,VALID,0,VALID,23.5381,VALID,52,VALID,0,
2009-04-03, 03:10:05,VALID,1007.62,VALID,0,VALID,85.2178,VALID,0,VALID,23.5381,VALID,52,VALID,0,
2009-04-03, 03:11:05,VALID,1007.6,VALID,0,VALID,85.2254,VALID,0,VALID,23.5186,VALID,52,VALID,0,
2009-04-03, 03:12:05,VALID,1007.62,VALID,0,VALID,85.2178,VALID,0,VALID,23.5381,VALID,52,VALID,0,
2009-04-03, 03:13:05,VALID,1007.6,VALID,0,VALID,85.2254,VALID,0,VALID,23.4974,VALID,52,VALID,0,
2009-04-03, 03:14:05,VALID,1007.57,VALID,0,VALID,85.233,VALID,0,VALID,23.5186,VALID,52,VALID,0,
2009-04-03, 03:15:05,VALID,1007.57,VALID,0,VALID,85.233,VALID,0,VALID,23.4992,VALID,52,VALID,0,
2009-04-03, 03:16:05,VALID,1007.55,VALID,0,VALID,85.233,VALID,0,VALID,23.4797,VALID,52,VALID,0,
2009-04-03, 03:17:05,VALID,1007.49,VALID,0,VALID,85.2483,VALID,0,VALID,23.4779,VALID,52,VALID,0,
2009-04-03, 03:18:05,VALID,1007.5,VALID,0,VALID,85.2483,VALID,0,VALID,23.4992,VALID,52,VALID,0,
2009-04-03, 03:19:05,VALID,1007.48,VALID,0,VALID,85.2483,VALID,0,VALID,23.4992,VALID,52,VALID,0,
2009-04-03, 03:20:05,VALID,1007.5,VALID,0,VALID,85.2483,VALID,0,VALID,23.4974,VALID,52,VALID,0,
2009-04-03, 03:21:05,VALID,1007.5,VALID,0,VALID,85.2559,VALID,0,VALID,23.4797,VALID,52,VALID,0,
2009-04-03, 03:22:05,VALID,1007.51,VALID,0,VALID,85.2483,VALID,0,VALID,23.4797,VALID,52,VALID,0,
2009-04-03, 03:23:05,VALID,1007.48,VALID,0,VALID,85.2407,VALID,0,VALID,23.4797,VALID,52,VALID,0,
2009-04-03, 03:24:05,VALID,1007.52,VALID,0,VALID,85.2559,VALID,0,VALID,23.4797,VALID,52,VALID,0,
2009-04-03, 03:25:05,VALID,1007.5,VALID,0,VALID,85.2483,VALID,0,VALID,23.4992,VALID,52,VALID,0,
2009-04-03, 03:26:05,VALID,1007.52,VALID,0,VALID,85.2559,VALID,0,VALID,23.4779,VALID,52,VALID,0,
2009-04-03, 03:27:05,VALID,1007.54,VALID,0,VALID,85.2712,VALID,0,VALID,23.4992,VALID,52,VALID,0,
2009-04-03, 03:28:05,VALID,1007.58,VALID,0,VALID,85.2559,VALID,0,VALID,23.4992,VALID,52,VALID,0,
2009-04-03, 03:29:05,VALID,1007.6,VALID,0,VALID,85.2712,VALID,0,VALID,23.5186,VALID,52,VALID,0,
2009-04-03, 03:30:05,VALID,1007.6,VALID,0,VALID,85.2635,VALID,0,VALID,23.5186,VALID,52,VALID,0,
2009-04-03, 03:31:05,VALID,1007.62,VALID,0,VALID,85.2559,VALID,0,VALID,23.5381,VALID,54,VALID,0,
2009-04-03, 03:32:05,VALID,1007.64,VALID,0,VALID,85.2483,VALID,0,VALID,23.5381,VALID,55,VALID,0,
2009-04-03, 03:33:05,VALID,1007.67,VALID,0,VALID,85.2559,VALID,0,VALID,23.5381,VALID,64,VALID,0,
2009-04-03, 03:34:05,VALID,1007.68,VALID,0,VALID,85.2712,VALID,0,VALID,23.5399,VALID,81,VALID,0.763281,
2009-04-03, 03:35:05,VALID,1007.66,VALID,0,VALID,85.2788,VALID,0,VALID,23.5186,VALID,80,VALID,0.289453,
2009-04-03, 03:36:05,VALID,1007.64,VALID,0,VALID,85.2788,VALID,0,VALID,23.5381,VALID,80,VALID,0.145313,
2009-04-03, 03:37:05,VALID,1007.66,VALID,0,VALID,85.2635,VALID,0,VALID,23.5381,VALID,69,VALID,0,
2009-04-03, 03:38:05,VALID,1007.66,VALID,0,VALID,85.2407,VALID,0,VALID,23.5381,VALID,69,VALID,0,
2009-04-03, 03:39:05,VALID,1007.68,VALID,0,VALID,85.2407,VALID,0,VALID,23.5381,VALID,69,VALID,0,
2009-04-03, 03:40:05,VALID,1007.68,VALID,0,VALID,85.2559,VALID,0,VALID,23.5576,VALID,69,VALID,0,
2009-04-03, 03:41:05,VALID,1007.68,VALID,0,VALID,85.2635,VALID,0,VALID,23.5381,VALID,69,VALID,0,
2009-04-03, 03:42:05,VALID,1007.71,VALID,0,VALID,85.2559,VALID,0,VALID,23.5381,VALID,69,VALID,0,
2009-04-03, 03:43:05,VALID,1007.71,VALID,0,VALID,85.2559,VALID,0,VALID,23.5381,VALID,69,VALID,0,
2009-04-03, 03:44:05,VALID,1007.72,VALID,0,VALID,85.2788,VALID,0,VALID,23.5169,VALID,72,VALID,0,
2009-04-03, 03:45:05,VALID,1007.69,VALID,0,VALID,85.2407,VALID,0,VALID,23.5169,VALID,72,VALID,0,
2009-04-03, 03:46:05,VALID,1007.69,VALID,0,VALID,85.2559,VALID,0,VALID,23.5576,VALID,72,VALID,0,
2009-04-03, 03:47:05,VALID,1007.7,VALID,0,VALID,85.233,VALID,0,VALID,23.5363,VALID,72,VALID,0,
2009-04-03, 03:48:05,VALID,1007.73,VALID,0,VALID,85.2407,VALID,0,VALID,23.5186,VALID,72,VALID,0,
2009-04-03, 03:49:05,VALID,1007.73,VALID,0,VALID,85.2635,VALID,0,VALID,23.5169,VALID,72,VALID,0,
2009-04-03, 03:50:05,VALID,1007.76,VALID,0,VALID,85.2483,VALID,0,VALID,23.5186,VALID,72,VALID,0,
2009-04-03, 03:51:05,VALID,1007.76,VALID,0,VALID,85.233,VALID,0,VALID,23.4992,VALID,72,VALID,0,
2009-04-03, 03:52:05,VALID,1007.79,VALID,0,VALID,85.2483,VALID,0,VALID,23.4797,VALID,72,VALID,0,
2009-04-03, 03:53:05,VALID,1007.77,VALID,0,VALID,85.2559,VALID,0,VALID,23.4407,VALID,72,VALID,0,
2009-04-03, 03:54:05,VALID,1007.8,VALID,0,VALID,85.233,VALID,0,VALID,23.4407,VALID,72,VALID,0.275,
2009-04-03, 03:55:05,VALID,1007.79,VALID,0,VALID,85.233,VALID,0,VALID,23.4212,VALID,72,VALID,0.160547,
2009-04-03, 03:56:05,VALID,1007.79,VALID,0,VALID,85.2254,VALID,0,VALID,23.4212,VALID,72,VALID,0,
2009-04-03, 03:57:05,VALID,1007.81,VALID,0,VALID,85.233,VALID,0,VALID,23.4017,VALID,72,VALID,0,